Time,TemperatureF,DewpointF,PressureIn,WindDirection,WindDirectionDegrees,WindSpeedMPH,WindSpeedGustMPH,Humidity,HourlyPrecipIn,Conditions,Clouds,dailyrainin,SoftwareType,DateUTC
2013-01-08 00:00:00,16.1,12.9,30.31,SSE,165,0.0,0.0,87,0.00,,,0.00,Wunderground v.1.15,2013-01-08 05:00:00,
2013-01-08 00:10:00,16.2,13.0,30.31,SSE,165,0.0,0.0,87,0.00,,,0.00,Wunderground v.1.15,2013-01-08 05:10:00,
2013-01-08 00:15:00,16.2,13.3,30.30,SSE,165,0.0,0.0,88,0.00,,,0.00,Wunderground v.1.15,2013-01-08 05:15:00,
2013-01-08 00:20:00,16.4,13.5,30.30,SSE,165,0.0,0.0,88,0.00,,,0.00,Wunderground v.1.15,2013-01-08 05:20:00,
2013-01-08 00:25:00,16.4,13.5,30.30,SSE,165,0.0,0.0,88,0.00,,,0.00,Wunderground v.1.15,2013-01-08 05:25:00,
2013-01-08 00:30:00,16.4,13.7,30.30,SSE,165,0.0,0.0,89,0.00,,,0.00,Wunderground v.1.15,2013-01-08 05:30:00,
2013-01-08 00:39:00,16.5,13.8,30.30,SSE,165,0.0,0.0,89,0.00,,,0.00,Wunderground v.1.15,2013-01-08 05:39:00,
2013-01-08 00:45:00,16.7,14.3,30.30,SSE,165,0.0,0.0,90,0.00,,,0.00,Wunderground v.1.15,2013-01-08 05:45:00,
2013-01-08 00:50:00,16.7,14.3,30.30,SSE,165,0.0,0.0,90,0.00,,,0.00,Wunderground v.1.15,2013-01-08 05:50:00,
2013-01-08 01:00:00,16.9,14.5,30.30,SSE,165,0.0,0.0,90,0.00,,,0.00,Wunderground v.1.15,2013-01-08 06:00:00,
2013-01-08 01:10:00,17.0,14.8,30.30,SSE,165,0.0,0.0,91,0.00,,,0.00,Wunderground v.1.15,2013-01-08 06:10:00,
2013-01-08 01:15:00,17.2,15.0,30.29,SSE,165,0.0,0.0,91,0.00,,,0.00,Wunderground v.1.15,2013-01-08 06:15:00,
2013-01-08 01:20:00,17.2,15.0,30.29,SSE,165,0.0,0.0,91,0.00,,,0.00,Wunderground v.1.15,2013-01-08 06:20:00,
2013-01-08 01:25:00,17.3,15.4,30.29,SSE,165,0.0,0.0,92,0.00,,,0.00,Wunderground v.1.15,2013-01-08 06:25:00,
2013-01-08 01:30:00,17.7,15.8,30.29,SSE,165,0.0,0.0,92,0.00,,,0.00,Wunderground v.1.15,2013-01-08 06:30:00,
2013-01-08 01:35:00,17.8,16.1,30.29,SSE,165,0.0,0.0,93,0.00,,,0.00,Wunderground v.1.15,2013-01-08 06:35:00,
2013-01-08 01:40:00,17.8,16.1,30.29,SSE,165,0.0,0.0,93,0.00,,,0.00,Wunderground v.1.15,2013-01-08 06:40:00,
2013-01-08 01:45:00,18.0,16.3,30.29,SSE,165,0.0,0.0,93,0.00,,,0.00,Wunderground v.1.15,2013-01-08 06:45:00,
2013-01-08 01:50:00,18.0,16.3,30.29,SSE,165,0.0,0.0,93,0.00,,,0.00,Wunderground v.1.15,2013-01-08 06:50:00,
2013-01-08 01:55:00,18.0,16.3,30.29,SSE,165,0.0,0.0,93,0.00,,,0.00,Wunderground v.1.15,2013-01-08 06:55:00,
2013-01-08 02:05:00,18.1,16.4,30.29,SSE,165,0.0,0.0,93,0.00,,,0.00,Wunderground v.1.15,2013-01-08 07:05:00,
2013-01-08 02:10:00,18.1,16.4,30.29,SSE,165,0.0,0.0,93,0.00,,,0.00,Wunderground v.1.15,2013-01-08 07:10:00,
2013-01-08 02:15:00,18.1,16.4,30.28,SSE,165,0.0,0.0,93,0.00,,,0.00,Wunderground v.1.15,2013-01-08 07:15:00,
2013-01-08 02:24:00,18.3,16.6,30.28,SSE,165,0.0,0.0,93,0.00,,,0.00,Wunderground v.1.15,2013-01-08 07:24:00,
2013-01-08 02:29:00,18.4,16.7,30.28,SSE,165,0.0,0.0,93,0.00,,,0.00,Wunderground v.1.15,2013-01-08 07:29:00,
2013-01-08 02:35:00,18.4,16.7,30.28,SSE,165,0.0,0.0,93,0.00,,,0.00,Wunderground v.1.15,2013-01-08 07:35:00,
2013-01-08 02:44:00,18.6,17.2,30.27,SSE,165,0.0,0.0,94,0.00,,,0.00,Wunderground v.1.15,2013-01-08 07:44:00,
2013-01-08 02:50:00,18.8,17.4,30.27,SSE,165,0.0,0.0,94,0.00,,,0.00,Wunderground v.1.15,2013-01-08 07:50:00,
2013-01-08 02:55:00,18.8,17.4,30.27,SSE,165,0.0,0.0,94,0.00,,,0.00,Wunderground v.1.15,2013-01-08 07:55:00,
2013-01-08 03:00:00,18.9,17.5,30.27,SSE,165,0.0,0.0,94,0.00,,,0.00,Wunderground v.1.15,2013-01-08 08:00:00,
2013-01-08 03:05:00,19.1,17.7,30.27,SSE,165,0.0,0.0,94,0.00,,,0.00,Wunderground v.1.15,2013-01-08 08:05:00,
2013-01-08 03:15:00,19.2,17.8,30.27,South,171,0.0,0.0,94,0.00,,,0.00,Wunderground v.1.15,2013-01-08 08:15:00,
2013-01-08 03:20:00,19.2,17.8,30.27,South,171,0.0,0.0,94,0.00,,,0.00,Wunderground v.1.15,2013-01-08 08:20:00,
2013-01-08 03:25:00,19.5,18.3,30.27,SW,233,0.0,0.0,95,0.00,,,0.00,Wunderground v.1.15,2013-01-08 08:25:00,
2013-01-08 03:30:00,19.7,18.5,30.27,SW,233,0.0,0.0,95,0.00,,,0.00,Wunderground v.1.15,2013-01-08 08:30:00,
2013-01-08 03:35:00,19.9,18.7,30.27,SW,233,0.0,0.0,95,0.00,,,0.00,Wunderground v.1.15,2013-01-08 08:35:00,
2013-01-08 03:45:00,20.0,18.8,30.26,SW,216,0.0,0.0,95,0.00,,,0.00,Wunderground v.1.15,2013-01-08 08:45:00,
2013-01-08 03:50:00,20.2,19.0,30.26,SW,216,0.0,0.0,95,0.00,,,0.00,Wunderground v.1.15,2013-01-08 08:50:00,
2013-01-08 03:55:00,20.2,19.0,30.26,SW,216,0.0,0.0,95,0.00,,,0.00,Wunderground v.1.15,2013-01-08 08:55:00,
2013-01-08 04:00:00,20.0,18.8,30.25,SW,216,0.0,0.0,95,0.00,,,0.00,Wunderground v.1.15,2013-01-08 09:00:00,
2013-01-08 04:05:00,20.0,18.6,30.25,SW,216,0.0,0.0,94,0.00,,,0.00,Wunderground v.1.15,2013-01-08 09:05:00,
2013-01-08 04:10:00,19.9,18.5,30.25,SW,216,0.0,0.0,94,0.00,,,0.00,Wunderground v.1.15,2013-01-08 09:10:00,
2013-01-08 04:20:00,19.9,18.5,30.25,SW,229,0.0,0.0,94,0.00,,,0.00,Wunderground v.1.15,2013-01-08 09:20:00,
2013-01-08 04:25:00,19.9,18.5,30.25,SW,229,0.0,0.0,94,0.00,,,0.00,Wunderground v.1.15,2013-01-08 09:25:00,
2013-01-08 04:30:00,19.9,18.5,30.24,SW,229,0.0,0.0,94,0.00,,,0.00,Wunderground v.1.15,2013-01-08 09:30:00,
2013-01-08 04:35:00,19.7,18.3,30.24,SW,229,0.0,0.0,94,0.00,,,0.00,Wunderground v.1.15,2013-01-08 09:35:00,
2013-01-08 04:40:00,19.7,18.3,30.24,SW,229,0.0,0.0,94,0.00,,,0.00,Wunderground v.1.15,2013-01-08 09:40:00,
2013-01-08 04:50:00,19.7,18.3,30.24,SW,229,0.0,0.0,94,0.00,,,0.00,Wunderground v.1.15,2013-01-08 09:50:00,
2013-01-08 04:55:00,19.7,18.3,30.24,SSW,193,0.0,0.0,94,0.00,,,0.00,Wunderground v.1.15,2013-01-08 09:55:00,
2013-01-08 05:00:00,19.7,18.3,30.24,SSW,193,0.0,0.0,94,0.00,,,0.00,Wunderground v.1.15,2013-01-08 10:00:00,
2013-01-08 05:05:00,19.7,18.3,30.24,SSW,193,0.0,0.0,94,0.00,,,0.00,Wunderground v.1.15,2013-01-08 10:05:00,
2013-01-08 05:10:00,19.7,18.3,30.24,SSW,193,0.0,0.0,94,0.00,,,0.00,Wunderground v.1.15,2013-01-08 10:10:00,
2013-01-08 05:15:00,19.7,18.3,30.24,SSW,193,0.0,0.0,94,0.00,,,0.00,Wunderground v.1.15,2013-01-08 10:15:00,
2013-01-08 05:25:00,19.7,18.3,30.24,SSW,202,0.0,0.0,94,0.00,,,0.00,Wunderground v.1.15,2013-01-08 10:25:00,
2013-01-08 05:30:00,19.7,18.0,30.24,SSW,202,0.0,0.0,93,0.00,,,0.00,Wunderground v.1.15,2013-01-08 10:30:00,
2013-01-08 05:35:00,19.7,18.3,30.24,SSW,205,0.0,0.0,94,0.00,,,0.00,Wunderground v.1.15,2013-01-08 10:35:00,
2013-01-08 05:40:00,19.7,18.0,30.24,SSW,206,0.0,0.0,93,0.00,,,0.00,Wunderground v.1.15,2013-01-08 10:40:00,
2013-01-08 05:49:00,19.9,18.5,30.23,SSW,213,0.0,0.0,94,0.00,,,0.00,Wunderground v.1.15,2013-01-08 10:49:00,
2013-01-08 05:55:00,20.0,18.6,30.23,SSW,213,0.0,0.0,94,0.00,,,0.00,Wunderground v.1.15,2013-01-08 10:55:00,
2013-01-08 06:00:00,20.0,18.6,30.24,SSW,213,0.0,0.0,94,0.00,,,0.00,Wunderground v.1.15,2013-01-08 11:00:00,
2013-01-08 06:09:00,20.2,18.8,30.24,SW,216,0.0,0.0,94,0.00,,,0.00,Wunderground v.1.15,2013-01-08 11:09:00,
2013-01-08 06:14:00,20.2,18.5,30.23,SW,217,0.0,0.0,93,0.00,,,0.00,Wunderground v.1.15,2013-01-08 11:14:00,
2013-01-08 06:20:00,20.2,18.5,30.23,SW,217,0.0,0.0,93,0.00,,,0.00,Wunderground v.1.15,2013-01-08 11:20:00,
2013-01-08 06:29:00,20.3,18.6,30.24,SW,217,0.0,0.0,93,0.00,,,0.00,Wunderground v.1.15,2013-01-08 11:29:00,
2013-01-08 06:35:00,20.3,18.6,30.24,SW,217,0.0,0.0,93,0.00,,,0.00,Wunderground v.1.15,2013-01-08 11:35:00,
2013-01-08 06:40:00,20.3,18.6,30.24,SW,217,0.0,0.0,93,0.00,,,0.00,Wunderground v.1.15,2013-01-08 11:40:00,
2013-01-08 06:45:00,20.5,18.8,30.24,SW,217,0.0,0.0,93,0.00,,,0.00,Wunderground v.1.15,2013-01-08 11:45:00,
2013-01-08 06:50:00,20.5,18.8,30.24,SW,217,0.0,0.0,93,0.00,,,0.00,Wunderground v.1.15,2013-01-08 11:50:00,
2013-01-08 06:55:00,20.5,18.8,30.24,SW,217,0.0,0.0,93,0.00,,,0.00,Wunderground v.1.15,2013-01-08 11:55:00,
2013-01-08 07:05:00,20.0,18.1,30.24,SW,217,0.0,0.0,92,0.00,,,0.00,Wunderground v.1.15,2013-01-08 12:05:00,
2013-01-08 07:10:00,19.9,18.0,30.24,SW,217,0.0,0.0,92,0.00,,,0.00,Wunderground v.1.15,2013-01-08 12:10:00,
2013-01-08 07:15:00,19.7,17.8,30.24,SW,217,0.0,0.0,92,0.00,,,0.00,Wunderground v.1.15,2013-01-08 12:15:00,
2013-01-08 07:20:00,19.7,17.8,30.24,SW,217,0.0,0.0,92,0.00,,,0.00,Wunderground v.1.15,2013-01-08 12:20:00,
2013-01-08 07:25:00,19.7,17.8,30.24,SW,217,0.0,0.0,92,0.00,,,0.00,Wunderground v.1.15,2013-01-08 12:25:00,
2013-01-08 07:35:00,19.2,17.0,30.25,SW,217,0.0,0.0,91,0.00,,,0.00,Wunderground v.1.15,2013-01-08 12:35:00,
2013-01-08 07:40:00,19.2,17.0,30.25,SW,217,0.0,0.0,91,0.00,,,0.00,Wunderground v.1.15,2013-01-08 12:40:00,
2013-01-08 07:45:00,19.1,16.9,30.26,SW,217,0.0,0.0,91,0.00,,,0.00,Wunderground v.1.15,2013-01-08 12:45:00,
2013-01-08 07:50:00,18.8,16.6,30.26,SW,217,0.0,0.0,91,0.00,,,0.00,Wunderground v.1.15,2013-01-08 12:50:00,
2013-01-08 07:55:00,18.8,16.6,30.26,SW,217,0.0,0.0,91,0.00,,,0.00,Wunderground v.1.15,2013-01-08 12:55:00,
2013-01-08 08:05:00,18.8,16.9,30.26,SW,217,0.0,0.0,92,0.00,,,0.00,Wunderground v.1.15,2013-01-08 13:05:00,
2013-01-08 08:10:00,18.9,17.2,30.26,SW,217,0.0,0.0,93,0.00,,,0.00,Wunderground v.1.15,2013-01-08 13:10:00,
2013-01-08 08:15:00,19.2,17.5,30.26,SW,217,0.0,0.0,93,0.00,,,0.00,Wunderground v.1.15,2013-01-08 13:15:00,
2013-01-08 08:24:00,21.1,19.9,30.26,SW,219,0.0,0.0,95,0.00,,,0.00,Wunderground v.1.15,2013-01-08 13:24:00,
2013-01-08 08:29:00,21.9,20.7,30.26,SW,220,0.0,0.0,95,0.00,,,0.00,Wunderground v.1.15,2013-01-08 13:29:00,
2013-01-08 08:35:00,22.5,21.3,30.26,SW,219,0.0,1.0,95,0.00,,,0.00,Wunderground v.1.15,2013-01-08 13:35:00,
2013-01-08 08:44:00,24.2,23.2,30.26,West,267,0.0,0.0,96,0.00,,,0.00,Wunderground v.1.15,2013-01-08 13:44:00,
2013-01-08 08:50:00,25.0,24.0,30.26,West,281,0.0,1.0,96,0.00,,,0.00,Wunderground v.1.15,2013-01-08 13:50:00,
2013-01-08 08:55:00,25.7,24.7,30.26,NNE,24,0.0,1.0,96,0.00,,,0.00,Wunderground v.1.15,2013-01-08 13:55:00,
2013-01-08 09:00:00,26.7,25.5,30.26,SW,223,0.0,0.0,95,0.00,,,0.00,Wunderground v.1.15,2013-01-08 14:00:00,
2013-01-08 09:05:00,27.0,25.5,30.26,SW,223,0.0,1.0,94,0.00,,,0.00,Wunderground v.1.15,2013-01-08 14:05:00,
2013-01-08 09:15:00,28.1,26.3,30.26,SW,224,0.0,1.0,93,0.00,,,0.00,Wunderground v.1.15,2013-01-08 14:15:00,
2013-01-08 09:20:00,28.7,25.9,30.26,ESE,116,0.0,1.0,89,0.00,,,0.00,Wunderground v.1.15,2013-01-08 14:20:00,
2013-01-08 09:25:00,29.7,26.6,30.26,East,80,0.0,1.0,88,0.00,,,0.00,Wunderground v.1.15,2013-01-08 14:25:00,
2013-01-08 09:30:00,30.0,26.9,30.25,ESE,121,0.0,1.0,88,0.00,,,0.00,Wunderground v.1.15,2013-01-08 14:30:00,
2013-01-08 09:35:00,30.4,27.3,30.25,SSE,157,1.0,1.0,88,0.00,,,0.00,Wunderground v.1.15,2013-01-08 14:35:00,
2013-01-08 09:40:00,31.6,26.1,30.25,West,277,0.0,2.0,80,0.00,,,0.00,Wunderground v.1.15,2013-01-08 14:40:00,
2013-01-08 09:50:00,33.1,27.6,30.26,West,265,1.0,1.0,80,0.00,,,0.00,Wunderground v.1.15,2013-01-08 14:50:00,
2013-01-08 09:55:00,33.1,27.6,30.26,SW,234,0.0,1.0,80,0.00,,,0.00,Wunderground v.1.15,2013-01-08 14:55:00,
2013-01-08 10:00:00,35.0,29.5,30.25,SSE,161,0.0,1.0,80,0.00,,,0.00,Wunderground v.1.15,2013-01-08 15:00:00,
2013-01-08 10:05:00,35.6,30.0,30.25,WSW,248,1.0,2.0,80,0.00,,,0.00,Wunderground v.1.15,2013-01-08 15:05:00,
2013-01-08 10:10:00,35.6,30.0,30.25,NE,37,0.0,0.0,80,0.00,,,0.00,Wunderground v.1.15,2013-01-08 15:10:00,
2013-01-08 10:20:00,36.3,30.7,30.25,WSW,244,0.0,0.0,80,0.00,,,0.00,Wunderground v.1.15,2013-01-08 15:20:00,
2013-01-08 10:25:00,36.3,30.7,30.25,WSW,244,1.0,1.0,80,0.00,,,0.00,Wunderground v.1.15,2013-01-08 15:25:00,
2013-01-08 10:30:00,36.9,31.3,30.24,WSW,250,1.0,1.0,80,0.00,,,0.00,Wunderground v.1.15,2013-01-08 15:30:00,
2013-01-08 10:35:00,36.9,31.3,30.24,SW,222,0.0,1.0,80,0.00,,,0.00,Wunderground v.1.15,2013-01-08 15:35:00,
2013-01-08 10:40:00,37.6,32.0,30.24,SW,224,0.0,1.0,80,0.00,,,0.00,Wunderground v.1.15,2013-01-08 15:40:00,
2013-01-08 10:45:00,37.9,26.4,30.24,WSW,251,0.0,1.0,63,0.00,,,0.00,Wunderground v.1.15,2013-01-08 15:45:00,
2013-01-08 10:55:00,38.5,25.8,30.24,SSW,198,0.0,1.0,60,0.00,,,0.00,Wunderground v.1.15,2013-01-08 15:55:00,
2013-01-08 11:00:00,38.5,25.0,30.23,WSW,243,1.0,1.0,58,0.00,,,0.00,Wunderground v.1.15,2013-01-08 16:00:00,
2013-01-08 11:05:00,38.6,25.1,30.23,WNW,296,1.0,2.0,58,0.00,,,0.00,Wunderground v.1.15,2013-01-08 16:05:00,
2013-01-08 11:10:00,38.6,25.1,30.23,West,265,1.0,1.0,58,0.00,,,0.00,Wunderground v.1.15,2013-01-08 16:10:00,
2013-01-08 11:15:00,38.9,25.8,30.23,South,178,1.0,1.0,59,0.00,,,0.00,Wunderground v.1.15,2013-01-08 16:15:00,
2013-01-08 11:25:00,39.3,26.2,30.23,West,268,0.0,0.0,59,0.00,,,0.00,Wunderground v.1.15,2013-01-08 16:25:00,
2013-01-08 11:30:00,39.6,26.4,30.22,West,268,0.0,0.0,59,0.00,,,0.00,Wunderground v.1.15,2013-01-08 16:30:00,
2013-01-08 11:35:00,39.9,25.9,30.22,West,280,1.0,2.0,57,0.00,,,0.00,Wunderground v.1.15,2013-01-08 16:35:00,
2013-01-08 11:40:00,40.3,26.3,30.22,WNW,292,1.0,1.0,57,0.00,,,0.00,Wunderground v.1.15,2013-01-08 16:40:00,
2013-01-08 11:49:00,41.1,25.7,30.22,West,280,1.0,1.0,54,0.00,,,0.00,Wunderground v.1.15,2013-01-08 16:49:00,
2013-01-08 11:55:00,41.5,26.1,30.22,West,275,1.0,1.0,54,0.00,,,0.00,Wunderground v.1.15,2013-01-08 16:55:00,
2013-01-08 12:00:00,41.6,26.6,30.21,West,275,1.0,1.0,55,0.00,,,0.00,Wunderground v.1.15,2013-01-08 17:00:00,
2013-01-08 12:05:00,41.6,26.2,30.21,ENE,66,1.0,1.0,54,0.00,,,0.00,Wunderground v.1.15,2013-01-08 17:05:00,
2013-01-08 12:14:00,41.9,25.5,30.21,North,353,1.0,1.0,52,0.00,,,0.00,Wunderground v.1.15,2013-01-08 17:14:00,
2013-01-08 12:19:00,42.1,25.7,30.21,WNW,285,1.0,1.0,52,0.00,,,0.00,Wunderground v.1.15,2013-01-08 17:19:00,
2013-01-08 12:25:00,42.3,25.9,30.21,West,261,1.0,1.0,52,0.00,,,0.00,Wunderground v.1.15,2013-01-08 17:25:00,
2013-01-08 12:34:00,42.6,26.6,30.20,West,270,0.0,1.0,53,0.00,,,0.00,Wunderground v.1.15,2013-01-08 17:34:00,
2013-01-08 12:39:00,42.5,26.6,30.20,WSW,251,1.0,1.0,53,0.00,,,0.00,Wunderground v.1.15,2013-01-08 17:39:00,
2013-01-08 12:45:00,42.5,26.1,30.20,WSW,246,1.0,1.0,52,0.00,,,0.00,Wunderground v.1.15,2013-01-08 17:45:00,
2013-01-08 12:50:00,42.5,26.1,30.20,SSE,158,0.0,1.0,52,0.00,,,0.00,Wunderground v.1.15,2013-01-08 17:50:00,
2013-01-08 12:55:00,42.3,25.9,30.20,WSW,251,0.0,1.0,52,0.00,,,0.00,Wunderground v.1.15,2013-01-08 17:55:00,
2013-01-08 13:05:00,41.9,25.5,30.20,South,169,1.0,3.0,52,0.00,,,0.00,Wunderground v.1.15,2013-01-08 18:05:00,
2013-01-08 13:10:00,41.8,25.4,30.20,WSW,243,0.0,0.0,52,0.00,,,0.00,Wunderground v.1.15,2013-01-08 18:10:00,
2013-01-08 13:15:00,41.5,26.1,30.19,West,261,0.0,1.0,54,0.00,,,0.00,Wunderground v.1.15,2013-01-08 18:15:00,
2013-01-08 13:20:00,41.5,26.5,30.19,WSW,244,0.0,0.0,55,0.00,,,0.00,Wunderground v.1.15,2013-01-08 18:20:00,
2013-01-08 13:25:00,41.8,26.4,30.19,West,265,0.0,0.0,54,0.00,,,0.00,Wunderground v.1.15,2013-01-08 18:25:00,
2013-01-08 13:30:00,41.9,25.5,30.19,SE,138,0.0,0.0,52,0.00,,,0.00,Wunderground v.1.15,2013-01-08 18:30:00,
2013-01-08 13:40:00,41.8,25.4,30.19,West,263,0.0,1.0,52,0.00,,,0.00,Wunderground v.1.15,2013-01-08 18:40:00,
2013-01-08 13:45:00,41.9,26.0,30.20,SSW,203,0.0,1.0,53,0.00,,,0.00,Wunderground v.1.15,2013-01-08 18:45:00,
2013-01-08 13:50:00,42.1,26.6,30.20,SSW,193,0.0,0.0,54,0.00,,,0.00,Wunderground v.1.15,2013-01-08 18:50:00,
2013-01-08 13:55:00,41.8,26.4,30.20,SE,145,0.0,0.0,54,0.00,,,0.00,Wunderground v.1.15,2013-01-08 18:55:00,
2013-01-08 14:00:00,41.9,25.5,30.20,WSW,248,0.0,0.0,52,0.00,,,0.00,Wunderground v.1.15,2013-01-08 19:00:00,
2013-01-08 14:10:00,42.3,26.4,30.20,WSW,246,0.0,1.0,53,0.00,,,0.00,Wunderground v.1.15,2013-01-08 19:10:00,
2013-01-08 14:15:00,42.2,25.8,30.20,West,271,0.0,1.0,52,0.00,,,0.00,Wunderground v.1.15,2013-01-08 19:15:00,
2013-01-08 14:20:00,42.1,25.7,30.20,West,271,0.0,0.0,52,0.00,,,0.00,Wunderground v.1.15,2013-01-08 19:20:00,
2013-01-08 14:25:00,41.9,26.0,30.20,West,264,0.0,0.0,53,0.00,,,0.00,Wunderground v.1.15,2013-01-08 19:25:00,
2013-01-08 14:34:00,41.9,26.9,30.21,SW,232,0.0,1.0,55,0.00,,,0.00,Wunderground v.1.15,2013-01-08 19:34:00,
2013-01-08 14:40:00,42.1,25.7,30.21,SSW,208,0.0,0.0,52,0.00,,,0.00,Wunderground v.1.15,2013-01-08 19:40:00,
2013-01-08 14:49:00,41.9,26.4,30.21,South,174,0.0,0.0,54,0.00,,,0.00,Wunderground v.1.15,2013-01-08 19:49:00,
2013-01-08 14:54:00,41.8,25.9,30.21,WSW,250,0.0,0.0,53,0.00,,,0.00,Wunderground v.1.15,2013-01-08 19:54:00,
2013-01-08 14:59:00,41.3,26.3,30.21,WSW,250,0.0,2.0,55,0.00,,,0.00,Wunderground v.1.15,2013-01-08 19:59:00,
2013-01-08 15:05:00,41.3,26.3,30.21,WSW,250,0.0,2.0,55,0.00,,,0.00,Wunderground v.1.15,2013-01-08 20:05:00,
2013-01-08 15:10:00,41.3,26.3,30.21,West,268,0.0,0.0,55,0.00,,,0.00,Wunderground v.1.15,2013-01-08 20:10:00,
2013-01-08 15:19:00,40.9,26.4,30.22,West,268,0.0,0.0,56,0.00,,,0.00,Wunderground v.1.15,2013-01-08 20:19:00,
2013-01-08 15:25:00,40.8,26.3,30.22,West,268,0.0,0.0,56,0.00,,,0.00,Wunderground v.1.15,2013-01-08 20:25:00,
2013-01-08 15:30:00,40.6,25.7,30.22,West,268,0.0,0.0,55,0.00,,,0.00,Wunderground v.1.15,2013-01-08 20:30:00,
2013-01-08 15:35:00,40.5,25.6,30.22,West,268,0.0,0.0,55,0.00,,,0.00,Wunderground v.1.15,2013-01-08 20:35:00,
2013-01-08 15:40:00,40.3,25.4,30.22,West,268,0.0,0.0,55,0.00,,,0.00,Wunderground v.1.15,2013-01-08 20:40:00,
2013-01-08 15:50:00,40.1,26.1,30.22,West,270,0.0,0.0,57,0.00,,,0.00,Wunderground v.1.15,2013-01-08 20:50:00,
2013-01-08 15:55:00,39.9,25.5,30.22,West,263,0.0,0.0,56,0.00,,,0.00,Wunderground v.1.15,2013-01-08 20:55:00,
2013-01-08 16:00:00,39.8,25.8,30.22,West,263,0.0,0.0,57,0.00,,,0.00,Wunderground v.1.15,2013-01-08 21:00:00,
2013-01-08 16:05:00,39.6,25.6,30.22,West,263,0.0,0.0,57,0.00,,,0.00,Wunderground v.1.15,2013-01-08 21:05:00,
2013-01-08 16:10:00,39.5,25.5,30.22,West,263,0.0,0.0,57,0.00,,,0.00,Wunderground v.1.15,2013-01-08 21:10:00,
2013-01-08 16:15:00,39.3,25.7,30.22,West,263,0.0,0.0,58,0.00,,,0.00,Wunderground v.1.15,2013-01-08 21:15:00,
2013-01-08 16:25:00,38.9,25.8,30.22,West,263,0.0,0.0,59,0.00,,,0.00,Wunderground v.1.15,2013-01-08 21:25:00,
2013-01-08 16:30:00,38.8,25.7,30.22,West,263,0.0,0.0,59,0.00,,,0.00,Wunderground v.1.15,2013-01-08 21:30:00,
2013-01-08 16:35:00,38.6,25.5,30.22,West,263,0.0,0.0,59,0.00,,,0.00,Wunderground v.1.15,2013-01-08 21:35:00,
2013-01-08 16:40:00,38.3,24.8,30.22,West,263,0.0,0.0,58,0.00,,,0.00,Wunderground v.1.15,2013-01-08 21:40:00,
2013-01-08 16:45:00,38.2,24.7,30.23,West,263,0.0,0.0,58,0.00,,,0.00,Wunderground v.1.15,2013-01-08 21:45:00,
2013-01-08 16:55:00,37.6,25.7,30.23,West,263,0.0,0.0,62,0.00,,,0.00,Wunderground v.1.15,2013-01-08 21:55:00,
2013-01-08 17:00:00,37.2,25.4,30.24,West,263,0.0,0.0,62,0.00,,,0.00,Wunderground v.1.15,2013-01-08 22:00:00,
2013-01-08 17:05:00,36.9,25.1,30.24,West,263,0.0,0.0,62,0.00,,,0.00,Wunderground v.1.15,2013-01-08 22:05:00,
2013-01-08 17:10:00,36.5,24.7,30.24,West,263,0.0,0.0,62,0.00,,,0.00,Wunderground v.1.15,2013-01-08 22:10:00,
2013-01-08 17:19:00,35.8,25.2,30.24,WSW,257,0.0,0.0,65,0.00,,,0.00,Wunderground v.1.15,2013-01-08 22:19:00,
2013-01-08 17:25:00,35.3,25.4,30.24,WSW,257,0.0,0.0,67,0.00,,,0.00,Wunderground v.1.15,2013-01-08 22:25:00,
2013-01-08 17:30:00,34.9,25.0,30.24,WSW,257,0.0,0.0,67,0.00,,,0.00,Wunderground v.1.15,2013-01-08 22:30:00,
2013-01-08 17:39:00,34.6,25.5,30.24,WSW,253,0.0,0.0,69,0.00,,,0.00,Wunderground v.1.15,2013-01-08 22:39:00,
2013-01-08 17:44:00,34.1,25.0,30.25,WSW,253,0.0,0.0,69,0.00,,,0.00,Wunderground v.1.15,2013-01-08 22:44:00,
2013-01-08 17:49:00,34.0,25.2,30.25,WSW,253,0.0,0.0,70,0.00,,,0.00,Wunderground v.1.15,2013-01-08 22:49:00,
2013-01-08 17:55:00,33.8,25.0,30.25,WSW,253,0.0,0.0,70,0.00,,,0.00,Wunderground v.1.15,2013-01-08 22:55:00,
2013-01-08 18:04:00,33.2,24.8,30.25,WSW,253,0.0,0.0,71,0.00,,,0.00,Wunderground v.1.15,2013-01-08 23:04:00,
2013-01-08 18:09:00,33.1,25.1,30.25,WSW,253,0.0,0.0,72,0.00,,,0.00,Wunderground v.1.15,2013-01-08 23:09:00,
2013-01-08 18:15:00,32.8,25.1,30.26,WSW,253,0.0,0.0,73,0.00,,,0.00,Wunderground v.1.15,2013-01-08 23:15:00,
2013-01-08 18:20:00,32.7,25.0,30.26,WSW,253,0.0,0.0,73,0.00,,,0.00,Wunderground v.1.15,2013-01-08 23:20:00,
2013-01-08 18:25:00,32.4,25.0,30.26,WSW,253,0.0,0.0,74,0.00,,,0.00,Wunderground v.1.15,2013-01-08 23:25:00,
2013-01-08 18:35:00,31.9,24.6,30.27,WSW,253,0.0,0.0,74,0.00,,,0.00,Wunderground v.1.15,2013-01-08 23:35:00,
2013-01-08 18:40:00,31.8,24.8,30.27,WSW,253,0.0,0.0,75,0.00,,,0.00,Wunderground v.1.15,2013-01-08 23:40:00,
2013-01-08 18:45:00,31.5,24.8,30.27,WSW,253,0.0,0.0,76,0.00,,,0.00,Wunderground v.1.15,2013-01-08 23:45:00,
2013-01-08 18:50:00,31.2,24.5,30.27,WSW,253,0.0,0.0,76,0.00,,,0.00,Wunderground v.1.15,2013-01-08 23:50:00,
2013-01-08 18:55:00,30.9,24.2,30.27,WSW,253,0.0,0.0,76,0.00,,,0.00,Wunderground v.1.15,2013-01-08 23:55:00,
2013-01-08 19:00:00,30.7,24.3,30.28,WSW,253,0.0,0.0,77,0.00,,,0.00,Wunderground v.1.15,2013-01-09 00:00:00,
2013-01-08 19:10:00,30.3,24.3,30.28,WSW,253,0.0,0.0,78,0.00,,,0.00,Wunderground v.1.15,2013-01-09 00:10:00,
2013-01-08 19:15:00,30.1,24.4,30.29,WSW,253,0.0,0.0,79,0.00,,,0.00,Wunderground v.1.15,2013-01-09 00:15:00,
2013-01-08 19:20:00,30.0,24.3,30.29,WSW,253,0.0,0.0,79,0.00,,,0.00,Wunderground v.1.15,2013-01-09 00:20:00,
2013-01-08 19:25:00,29.8,24.4,30.29,WSW,253,0.0,0.0,80,0.00,,,0.00,Wunderground v.1.15,2013-01-09 00:25:00,
2013-01-08 19:30:00,29.5,23.8,30.29,WSW,253,0.0,0.0,79,0.00,,,0.00,Wunderground v.1.15,2013-01-09 00:30:00,
2013-01-08 19:40:00,29.4,24.0,30.29,WSW,253,0.0,0.0,80,0.00,,,0.00,Wunderground v.1.15,2013-01-09 00:40:00,
2013-01-08 19:45:00,29.1,23.7,30.30,WSW,253,0.0,0.0,80,0.00,,,0.00,Wunderground v.1.15,2013-01-09 00:45:00,
2013-01-08 19:50:00,29.0,23.6,30.30,WSW,253,0.0,0.0,80,0.00,,,0.00,Wunderground v.1.15,2013-01-09 00:50:00,
2013-01-08 19:59:00,28.7,23.3,30.30,WSW,253,0.0,0.0,80,0.00,,,0.00,Wunderground v.1.15,2013-01-09 00:59:00,
2013-01-08 20:04:00,28.4,23.0,30.30,WSW,253,0.0,0.0,80,0.00,,,0.00,Wunderground v.1.15,2013-01-09 01:04:00,
2013-01-08 20:14:00,28.2,22.8,30.30,WSW,253,0.0,0.0,80,0.00,,,0.00,Wunderground v.1.15,2013-01-09 01:14:00,
2013-01-08 20:19:00,28.2,22.8,30.30,WSW,253,0.0,0.0,80,0.00,,,0.00,Wunderground v.1.15,2013-01-09 01:19:00,
2013-01-08 20:24:00,27.9,22.5,30.30,WSW,253,0.0,0.0,80,0.00,,,0.00,Wunderground v.1.15,2013-01-09 01:24:00,
2013-01-08 20:29:00,27.9,22.5,30.30,WSW,253,0.0,0.0,80,0.00,,,0.00,Wunderground v.1.15,2013-01-09 01:29:00,
2013-01-08 20:35:00,-999.9,-99.9,30.30,North,32767,-999.0,0.0,255,-99.99,,,0.00,Wunderground v.1.15,2013-01-09 01:35:00,
2013-01-08 20:40:00,-999.9,-99.9,30.30,North,32767,-999.0,0.0,255,-99.99,,,0.00,Wunderground v.1.15,2013-01-09 01:40:00,
2013-01-08 20:49:00,-999.9,-99.9,30.30,North,32767,-999.0,0.0,255,-99.99,,,0.00,Wunderground v.1.15,2013-01-09 01:49:00,
2013-01-08 20:55:00,-999.9,-99.9,30.30,North,32767,-999.0,0.0,255,-99.99,,,0.00,Wunderground v.1.15,2013-01-09 01:55:00,
2013-01-08 21:00:00,-999.9,-99.9,30.30,North,32767,-999.0,0.0,255,-99.99,,,0.00,Wunderground v.1.15,2013-01-09 02:00:00,
2013-01-08 21:05:00,-999.9,-99.9,30.30,North,32767,-999.0,0.0,255,-99.99,,,0.00,Wunderground v.1.15,2013-01-09 02:05:00,
2013-01-08 21:10:00,-999.9,-99.9,30.30,North,32767,-999.0,0.0,255,-99.99,,,0.00,Wunderground v.1.15,2013-01-09 02:10:00,
2013-01-08 21:20:00,-999.9,-99.9,30.29,North,32767,-999.0,0.0,255,-99.99,,,0.00,Wunderground v.1.15,2013-01-09 02:20:00,
2013-01-08 21:25:00,-999.9,-99.9,30.29,North,32767,-999.0,0.0,255,-99.99,,,0.00,Wunderground v.1.15,2013-01-09 02:25:00,
2013-01-08 21:30:00,-999.9,-99.9,30.29,North,32767,-999.0,0.0,255,-99.99,,,0.00,Wunderground v.1.15,2013-01-09 02:30:00,
2013-01-08 21:35:00,-999.9,-99.9,30.29,North,32767,-999.0,0.0,255,-99.99,,,0.00,Wunderground v.1.15,2013-01-09 02:35:00,
2013-01-08 21:40:00,-999.9,-99.9,30.29,North,32767,-999.0,0.0,255,-99.99,,,0.00,Wunderground v.1.15,2013-01-09 02:40:00,
2013-01-08 21:45:00,-999.9,-99.9,30.29,North,32767,-999.0,0.0,255,-99.99,,,0.00,Wunderground v.1.15,2013-01-09 02:45:00,
2013-01-08 21:55:00,-999.9,-99.9,30.29,North,32767,-999.0,0.0,255,-99.99,,,0.00,Wunderground v.1.15,2013-01-09 02:55:00,
2013-01-08 22:00:00,-999.9,-99.9,30.30,North,32767,-999.0,0.0,255,-99.99,,,0.00,Wunderground v.1.15,2013-01-09 03:00:00,
2013-01-08 22:05:00,-999.9,-99.9,30.30,North,32767,-999.0,0.0,255,-99.99,,,0.00,Wunderground v.1.15,2013-01-09 03:05:00,
2013-01-08 22:10:00,-999.9,-99.9,30.30,North,32767,-999.0,0.0,255,-99.99,,,0.00,Wunderground v.1.15,2013-01-09 03:10:00,
2013-01-08 22:15:00,-999.9,-99.9,30.30,North,32767,-999.0,0.0,255,-99.99,,,0.00,Wunderground v.1.15,2013-01-09 03:15:00,
2013-01-08 22:25:00,-999.9,-99.9,30.30,North,32767,-999.0,0.0,255,-99.99,,,0.00,Wunderground v.1.15,2013-01-09 03:25:00,
2013-01-08 22:30:00,-999.9,-99.9,30.30,North,32767,-999.0,0.0,255,-99.99,,,0.00,Wunderground v.1.15,2013-01-09 03:30:00,
2013-01-08 22:35:00,-999.9,-99.9,30.30,North,32767,-999.0,0.0,255,-99.99,,,0.00,Wunderground v.1.15,2013-01-09 03:35:00,
2013-01-08 22:40:00,-999.9,-99.9,30.30,WSW,253,0.0,0.0,255,-99.99,,,0.00,Wunderground v.1.15,2013-01-09 03:40:00,
2013-01-08 22:49:00,26.9,-99.9,30.30,WSW,253,0.0,0.0,255,0.00,,,0.00,Wunderground v.1.15,2013-01-09 03:49:00,
2013-01-08 22:55:00,26.9,-99.9,30.30,WSW,253,0.0,0.0,255,0.00,,,0.00,Wunderground v.1.15,2013-01-09 03:55:00,
2013-01-08 23:00:00,26.7,-99.9,30.31,WSW,253,0.0,0.0,255,0.00,,,0.00,Wunderground v.1.15,2013-01-09 04:00:00,
2013-01-08 23:05:00,26.7,-99.9,30.31,WSW,253,0.0,0.0,255,0.00,,,0.00,Wunderground v.1.15,2013-01-09 04:05:00,
2013-01-08 23:14:00,26.7,24.2,30.31,WSW,253,0.0,0.0,90,0.00,,,0.00,Wunderground v.1.15,2013-01-09 04:14:00,
2013-01-08 23:19:00,26.7,24.2,30.31,WSW,253,0.0,0.0,90,0.00,,,0.00,Wunderground v.1.15,2013-01-09 04:19:00,
2013-01-08 23:24:00,26.7,24.2,30.31,WSW,253,0.0,0.0,90,0.00,,,0.00,Wunderground v.1.15,2013-01-09 04:24:00,
2013-01-08 23:34:00,26.7,24.2,30.31,WSW,253,0.0,0.0,90,0.00,,,0.00,Wunderground v.1.15,2013-01-09 04:34:00,
2013-01-08 23:39:00,26.7,24.2,30.31,WSW,253,0.0,0.0,90,0.00,,,0.00,Wunderground v.1.15,2013-01-09 04:39:00,
2013-01-08 23:44:00,26.7,24.2,30.31,WSW,253,0.0,0.0,90,0.00,,,0.00,Wunderground v.1.15,2013-01-09 04:44:00,
2013-01-08 23:50:00,26.7,24.2,30.31,WSW,253,0.0,0.0,90,0.00,,,0.00,Wunderground v.1.15,2013-01-09 04:50:00,
2013-01-08 23:55:00,26.7,24.2,30.31,WSW,253,0.0,0.0,90,0.00,,,0.00,Wunderground v.1.15,2013-01-09 04:55:00,